| time (UTC) | temp F | wind direction | speed MPH | gust MPH | rain 1hr in | rain 24hr in | rain mn in | humidity % | barometer mb |
| 20260509064554 | 52 | 266 | 0.0 | 0.0 | 0.00 | 0.00 | 0.00 | 90 | 1008.4 |
| 20260509063053 | 52 | 266 | 0.0 | 2.0 | 0.00 | 0.00 | 0.00 | 89 | 1008.2 |
| 20260509061556 | 52 | 147 | 0.0 | 5.0 | 0.00 | 0.00 | 0.00 | 89 | 1008.0 |
| 20260509060053 | 51 | 149 | 1.0 | 3.0 | 0.00 | 0.00 | 0.00 | 91 | 1007.9 |
| 20260509054559 | 51 | 45 | 0.0 | 0.0 | 0.00 | 0.00 | 0.00 | 91 | 1008.4 |
| 20260509053052 | 50 | 45 | 0.0 | 0.0 | 0.00 | 0.00 | 0.00 | 91 | 1008.2 |
| 20260509051558 | 50 | 51 | 0.0 | 0.0 | 0.00 | 0.00 | 0.00 | 92 | 1008.0 |
| 20260509050050 | 50 | 51 | 0.0 | 1.0 | 0.00 | 0.00 | 0.00 | 91 | 1007.6 |
| 20260509044549 | 50 | 20 | 0.0 | 0.0 | 0.00 | 0.00 | 0.00 | 91 | 1007.2 |
| 20260509043054 | 50 | 94 | 0.0 | 1.0 | 0.00 | 0.00 | 0.00 | 92 | 1007.4 |
| 20260509041551 | 50 | 352 | 0.0 | 2.0 | 0.00 | 0.00 | 0.00 | 91 | 1007.3 |
| 20260509040052 | 50 | 49 | 0.0 | 2.0 | 0.00 | 0.00 | 0.00 | 91 | 1007.1 |
| 20260509034542 | 51 | 90 | 0.0 | 0.0 | 0.00 | 0.00 | 0.00 | 89 | 1007.5 |
| 20260509033040 | 51 | 92 | 0.0 | 0.0 | 0.00 | 0.00 | 0.00 | 89 | 1007.8 |
| 20260509031539 | 51 | 92 | 0.0 | 0.0 | 0.00 | 0.00 | 0.00 | 88 | 1008.1 |
| 20260509030041 | 52 | 92 | 0.0 | 0.0 | 0.00 | 0.00 | 0.00 | 88 | 1008.1 |
| 20260509024538 | 52 | 92 | 0.0 | 1.0 | 0.00 | 0.00 | 0.00 | 88 | 1008.0 |
| 20260509023036 | 52 | 91 | 0.0 | 5.0 | 0.00 | 0.00 | 0.00 | 88 | 1008.1 |
| 20260509021536 | 51 | 89 | 0.0 | 0.0 | 0.00 | 0.00 | 0.00 | 88 | 1008.2 |
| 20260509020035 | 51 | 74 | 0.0 | 2.0 | 0.00 | 0.00 | 0.00 | 88 | 1008.3 |
| 20260509014535 | 51 | 71 | 0.0 | 1.0 | 0.00 | 0.00 | 0.00 | 88 | 1008.2 |
| 20260509013045 | 51 | 54 | 0.0 | 0.0 | 0.00 | 0.00 | 0.00 | 87 | 1008.1 |
| 20260509011532 | 51 | 51 | 0.0 | 0.0 | 0.00 | 0.00 | 0.00 | 86 | 1008.3 |
| 20260509010031 | 51 | 53 | 0.0 | 0.0 | 0.00 | 0.00 | 0.00 | 86 | 1008.5 |
| 20260509004552 | 51 | 105 | 0.0 | 0.0 | 0.00 | 0.00 | 0.00 | 85 | 1008.6 |
| 20260509003036 | 52 | 126 | 0.0 | 2.0 | 0.00 | 0.00 | 0.00 | 84 | 1008.7 |
| 20260509001527 | 52 | 78 | 0.0 | 0.0 | 0.00 | 0.00 | 0.00 | 84 | 1008.8 |
| 20260509000025 | 52 | 138 | 1.0 | 3.0 | 0.00 | 0.00 | 0.00 | 83 | 1008.9 |
| 20260508234524 | 52 | 82 | 0.0 | 3.0 | 0.00 | 0.00 | 0.00 | 82 | 1008.9 |
| 20260508233023 | 52 | 99 | 0.0 | 1.0 | 0.00 | 0.00 | 0.00 | 83 | 1008.8 |
| 20260508231523 | 52 | 91 | 0.0 | 3.0 | 0.00 | 0.00 | 0.00 | 82 | 1009.0 |
| 20260508230036 | 52 | 46 | 0.0 | 1.0 | 0.00 | 0.00 | 0.00 | 82 | 1008.9 |
| 20260508224519 | 52 | 77 | 0.0 | 0.0 | 0.00 | 0.00 | 0.00 | 82 | 1008.9 |
| 20260508223021 | 52 | 77 | 0.0 | 0.0 | 0.00 | 0.00 | 0.00 | 82 | 1009.1 |
| 20260508221516 | 52 | 77 | 0.0 | 0.0 | 0.00 | 0.00 | 0.00 | 82 | 1009.1 |
| 20260508220016 | 52 | 51 | 0.0 | 0.0 | 0.00 | 0.00 | 0.00 | 82 | 1009.2 |
| 20260508214513 | 51 | 10 | 0.0 | 0.0 | 0.00 | 0.00 | 0.00 | 83 | 1009.3 |
| 20260508213012 | 52 | 10 | 0.0 | 0.0 | 0.00 | 0.00 | 0.00 | 82 | 1009.4 |
| 20260508211611 | 52 | 79 | 0.0 | 0.0 | 0.00 | 0.00 | 0.00 | 81 | 1009.3 |
| 20260508210012 | 53 | 53 | 0.0 | 0.0 | 0.00 | 0.00 | 0.00 | 81 | 1009.0 |
| 20260508204511 | 53 | 103 | 0.0 | 0.0 | 0.00 | 0.00 | 0.00 | 80 | 1009.0 |
| 20260508203010 | 54 | 103 | 0.0 | 0.0 | 0.00 | 0.00 | 0.00 | 80 | 1009.0 |
| 20260508201510 | 54 | 103 | 0.0 | 0.0 | 0.00 | 0.00 | 0.00 | 79 | 1008.7 |
| 20260508200011 | 55 | 104 | 0.0 | 2.0 | 0.00 | 0.00 | 0.00 | 76 | 1008.6 |
| 20260508194509 | 56 | 84 | 0.0 | 3.0 | 0.00 | 0.00 | 0.00 | 74 | 1008.4 |
| 20260508193008 | 57 | 99 | 0.0 | 3.0 | 0.00 | 0.00 | 0.00 | 72 | 1008.3 |
| 20260508191507 | 58 | 72 | 0.0 | 0.0 | 0.00 | 0.00 | 0.00 | 69 | 1008.1 |
| 20260508190008 | 60 | 71 | 0.0 | 0.0 | 0.00 | 0.00 | 0.00 | 65 | 1008.1 |
| 20260508184507 | 61 | 76 | 0.0 | 2.0 | 0.00 | 0.00 | 0.00 | 64 | 1008.0 |
| 20260508183007 | 62 | 77 | 0.0 | 2.0 | 0.00 | 0.00 | 0.00 | 62 | 1007.9 |
| 20260508181505 | 63 | 24 | 0.0 | 2.0 | 0.00 | 0.00 | 0.00 | 59 | 1007.9 |
| 20260508180004 | 63 | 4 | 0.0 | 3.0 | 0.00 | 0.00 | 0.00 | 59 | 1007.9 |
| 20260508174503 | 63 | 316 | 0.0 | 0.0 | 0.00 | 0.00 | 0.00 | 63 | 1008.0 |
| 20260508173059 | 61 | 289 | 0.0 | 3.0 | 0.00 | 0.00 | 0.00 | 63 | 1008.1 |
| 20260508171559 | 60 | 285 | 0.0 | 2.0 | 0.00 | 0.00 | 0.00 | 66 | 1008.1 |
| 20260508170100 | 61 | 289 | 1.0 | 5.0 | 0.00 | 0.00 | 0.00 | 65 | 1008.0 |
| 20260508164604 | 61 | 329 | 2.0 | 6.0 | 0.00 | 0.00 | 0.00 | 64 | 1008.1 |
| 20260508163059 | 61 | 327 | 1.0 | 5.0 | 0.00 | 0.00 | 0.00 | 65 | 1008.2 |
| 20260508161554 | 57 | 39 | 0.0 | 4.0 | 0.00 | 0.00 | 0.00 | 77 | 1008.3 |
| 20260508160054 | 56 | 329 | 0.0 | 4.0 | 0.00 | 0.00 | 0.00 | 83 | 1008.3 |
| 20260508154554 | 54 | 326 | 1.0 | 7.0 | 0.00 | 0.00 | 0.00 | 89 | 1008.4 |
| 20260508153051 | 52 | 309 | 2.0 | 13.0 | 0.00 | 0.00 | 0.00 | 90 | 1008.4 |
| 20260508151559 | 54 | 277 | 4.0 | 14.0 | 0.00 | 0.00 | 0.00 | 85 | 1009.1 |
| 20260508150059 | 58 | 263 | 3.0 | 8.0 | 0.00 | 0.00 | 0.00 | 76 | 1008.9 |
| 20260508144616 | 60 | 236 | 0.0 | 2.0 | 0.00 | 0.00 | 0.00 | 69 | 1008.6 |
| 20260508143053 | 61 | 224 | 0.0 | 7.0 | 0.00 | 0.00 | 0.00 | 68 | 1008.6 |
| 20260508141555 | 61 | 245 | 2.0 | 5.0 | 0.00 | 0.00 | 0.00 | 69 | 1008.9 |
| 20260508140049 | 60 | 123 | 0.0 | 6.0 | 0.00 | 0.00 | 0.00 | 71 | 1008.8 |
| 20260508134546 | 60 | 71 | 0.0 | 3.0 | 0.00 | 0.00 | 0.00 | 74 | 1008.8 |
| 20260508133105 | 56 | 75 | 0.0 | 6.0 | 0.00 | 0.00 | 0.00 | 78 | 1009.2 |
| 20260508131535 | 56 | 49 | 1.0 | 7.0 | 0.00 | 0.00 | 0.00 | 82 | 1009.2 |
| 20260508130031 | 54 | 102 | 3.0 | 6.0 | 0.00 | 0.00 | 0.00 | 86 | 1009.7 |
| 20260508124533 | 53 | 80 | 0.0 | 4.0 | 0.00 | 0.00 | 0.00 | 93 | 1009.7 |
| 20260508123028 | 52 | 61 | 0.0 | 2.0 | 0.00 | 0.00 | 0.00 | 94 | 1009.9 |
| 20260508121534 | 51 | 109 | 0.0 | 3.0 | 0.00 | 0.00 | 0.00 | 93 | 1010.3 |
| 20260508120027 | 51 | 27 | 1.0 | 3.0 | 0.00 | 0.00 | 0.00 | 94 | 1010.3 |
| 20260508114525 | 50 | 84 | 1.0 | 4.0 | 0.00 | 0.00 | 0.00 | 94 | 1010.3 |
| 20260508113024 | 50 | 89 | 0.0 | 2.0 | 0.00 | 0.00 | 0.00 | 94 | 1010.5 |
| 20260508111524 | 50 | 79 | 0.0 | 3.0 | 0.00 | 0.00 | 0.00 | 93 | 1010.5 |
| 20260508110042 | 50 | 89 | 0.0 | 2.0 | 0.00 | 0.00 | 0.00 | 93 | 1010.7 |
| 20260508104521 | 50 | 56 | 0.0 | 0.0 | 0.00 | 0.00 | 0.00 | 92 | 1010.6 |
| 20260508103021 | 51 | 54 | 0.0 | 1.0 | 0.00 | 0.00 | 0.00 | 91 | 1010.9 |
| 20260508101521 | 52 | 290 | 0.0 | 1.0 | 0.00 | 0.00 | 0.00 | 85 | 1010.9 |
| 20260508100021 | 52 | 138 | 0.0 | 4.0 | 0.00 | 0.00 | 0.00 | 81 | 1010.4 |
| 20260508094518 | 52 | 83 | 0.0 | 3.0 | 0.00 | 0.00 | 0.00 | 80 | 1010.4 |
| 20260508093017 | 52 | 124 | 0.0 | 2.0 | 0.00 | 0.00 | 0.00 | 79 | 1010.4 |
| 20260508091516 | 53 | 135 | 0.0 | 2.0 | 0.00 | 0.00 | 0.00 | 78 | 1010.7 |
| 20260508090024 | 53 | 205 | 0.0 | 4.0 | 0.00 | 0.00 | 0.00 | 78 | 1010.8 |
| 20260508084515 | 53 | 64 | 3.0 | 7.0 | 0.00 | 0.00 | 0.00 | 78 | 1010.1 |
| 20260508083012 | 52 | 142 | 3.0 | 6.0 | 0.00 | 0.00 | 0.00 | 79 | 1010.0 |
| 20260508081510 | 52 | 101 | 2.0 | 5.0 | 0.00 | 0.00 | 0.00 | 80 | 1010.2 |
| 20260508080011 | 51 | 94 | 1.0 | 4.0 | 0.00 | 0.00 | 0.00 | 82 | 1010.0 |
| 20260508074515 | 50 | 83 | 2.0 | 4.0 | 0.00 | 0.00 | 0.00 | 83 | 1010.3 |
| 20260508073107 | 50 | 103 | 0.0 | 4.0 | 0.00 | 0.00 | 0.00 | 86 | 1010.2 |
| 20260508071605 | 49 | 110 | 1.0 | 4.0 | 0.00 | 0.00 | 0.00 | 86 | 1009.9 |
| 20260508070058 | 49 | 131 | 0.0 | 4.0 | 0.00 | 0.00 | 0.00 | 86 | 1009.9 |